Theta_e
354 352 352 352 352 352 351 350 350 350 351 351 352 353 353 353 354 355 355 356 356 357 357 357 355 356 355 355 355 355 355 355 355 356 356 354 351 350 350 349 351 352 348 346 347 346 345 345 346 347 348 348 348 347 347 346 348 349 348 346 346 347 347 348 348 347 347 347 347 346 345 344 344 343 343 344 344 345 345 345 347 349 349 350 350
355 355 354 355 355 354 353 353 351 352 352 351 353 354 354 355 355 355 356 356 357 356 356 356 356 356 356 357 356 356 356 355 355 354 352 350 349 350 351 350 352 351 347 345 345 344 345 346 347 346 345 343 343 344 344 345 346 347 347 346 346 347 346 347 347 347 347 347 346 346 344 344 343 342 343 344 344 345 346 346 347 348 349 349 349
358 358 356 356 356 356 356 356 354 353 354 353 353 354 355 355 355 356 355 355 356 356 356 356 356 358 358 357 356 356 355 351 349 348 346 346 347 347 349 351 351 348 344 343 344 344 345 345 344 342 340 341 342 344 344 345 346 346 346 346 346 346 346 346 346 346 346 346 345 346 346 345 343 343 343 342 342 343 343 344 345 346 346 347 347
361 359 357 356 356 357 357 357 358 356 357 355 355 356 356 356 356 356 355 356 357 356 356 356 356 358 357 356 355 352 350 345 343 343 342 342 343 344 347 348 347 344 342 342 343 343 342 341 340 340 339 341 344 344 344 345 345 345 346 346 346 345 345 345 345 345 345 345 344 346 346 344 345 344 342 341 341 342 341 341 342 343 344 344 343
360 359 358 357 356 357 357 358 359 358 358 357 356 357 357 357 356 356 356 357 357 357 357 357 357 357 356 355 352 347 345 342 340 340 340 340 341 343 343 343 342 341 340 340 340 339 339 340 340 340 340 340 342 342 343 344 344 345 345 345 345 345 345 345 345 344 343 343 343 345 344 345 346 344 341 342 341 340 340 340 342 342 341 340 340
358 360 357 357 356 357 357 357 359 359 359 358 358 358 358 358 357 357 356 357 357 358 358 358 357 357 355 351 347 345 344 341 340 340 339 339 340 340 341 340 339 338 338 338 337 337 338 340 340 340 340 340 340 341 342 343 343 344 344 344 345 344 345 345 344 344 343 342 343 344 343 343 343 342 342 344 342 339 339 339 340 340 339 338 338
358 358 357 356 356 356 356 357 358 359 359 358 359 359 359 359 359 358 357 357 359 359 359 358 357 356 352 346 346 345 341 339 340 339 337 338 338 339 339 338 337 338 337 336 336 337 339 340 340 340 340 340 340 340 341 341 342 343 342 343 343 343 344 344 343 343 341 342 343 342 342 342 342 342 343 343 342 340 338 338 338 338 337 337 336
357 358 358 356 355 356 356 356 357 358 359 360 360 360 361 360 359 359 358 359 360 359 359 357 355 353 346 342 344 343 339 338 339 337 336 337 337 338 337 336 337 338 337 337 337 338 339 339 340 340 340 339 339 340 341 340 340 342 342 342 342 342 343 342 341 341 341 341 341 342 342 341 341 341 341 340 341 341 339 337 337 337 335 335 335
356 357 358 355 354 356 356 356 356 358 360 359 360 360 361 361 360 360 359 360 360 358 357 355 352 350 344 339 340 338 338 339 338 337 339 338 338 338 338 339 339 339 338 338 338 338 338 340 340 340 339 337 336 339 341 340 340 341 341 342 342 341 341 340 339 340 341 340 340 341 340 339 339 339 340 339 339 340 339 337 336 336 335 334 334
355 355 356 354 354 355 356 356 356 357 360 360 361 361 361 361 361 360 360 359 358 357 356 353 349 346 340 337 337 337 339 340 338 338 338 339 339 339 340 341 340 339 338 337 336 337 339 339 339 338 336 335 336 338 340 341 341 341 341 341 340 339 339 339 339 340 340 339 339 339 339 338 338 338 339 339 338 339 338 337 336 335 336 334 332
353 353 354 352 352 354 355 356 356 358 361 361 362 362 361 361 361 361 359 358 357 355 354 350 344 340 339 338 336 336 339 339 337 336 337 339 340 340 341 340 340 339 338 336 336 338 339 339 338 337 336 336 337 338 339 340 341 342 340 338 337 337 338 339 339 338 338 337 337 337 337 337 338 338 337 338 338 338 338 337 336 335 335 335 332
352 352 353 352 351 352 353 354 356 358 361 362 362 362 362 361 361 360 358 357 356 354 351 345 339 338 338 338 336 335 338 339 338 337 339 342 342 341 341 340 339 339 338 338 338 339 339 338 337 336 336 337 338 338 338 338 340 341 338 336 336 337 338 339 338 338 336 336 336 337 337 337 337 337 337 337 338 338 337 336 335 335 335 334 332
351 352 352 352 351 351 352 353 355 359 361 362 362 362 362 361 360 359 357 356 354 350 345 341 339 337 336 338 338 338 341 340 339 338 339 341 340 341 341 340 339 338 338 338 339 338 338 336 336 337 338 338 338 338 338 338 338 339 337 337 337 337 338 339 337 336 335 336 337 337 337 336 336 336 337 337 338 338 337 335 335 335 335 333 332
350 351 351 352 351 350 352 353 356 359 361 361 362 361 360 360 359 357 356 355 351 345 339 341 342 336 336 341 340 340 342 340 337 338 339 339 340 341 339 339 338 337 337 338 338 336 336 336 337 337 338 338 338 339 338 338 338 338 338 338 338 337 337 338 337 335 336 337 337 337 335 335 334 335 336 337 337 337 336 335 335 333 333 332 331
350 352 351 351 351 350 351 354 356 359 360 361 362 360 359 358 357 356 354 350 347 341 337 341 341 336 339 344 342 341 340 338 337 338 339 340 340 339 337 338 337 335 337 338 338 337 336 337 338 337 336 337 338 338 338 338 337 336 337 337 337 337 337 337 337 336 337 337 337 336 334 333 333 335 336 335 335 336 335 334 334 333 332 331 330
351 351 351 350 350 351 352 353 357 359 359 361 361 359 358 356 355 354 352 348 342 338 338 339 337 337 342 345 342 341 340 337 337 338 338 338 338 337 337 338 336 335 337 339 338 337 337 337 336 336 336 336 336 337 337 337 337 336 336 335 335 336 336 336 336 337 337 337 337 336 334 332 332 334 334 332 331 331 331 332 333 333 332 331 330
351 351 350 350 350 350 353 353 356 358 359 360 359 357 357 355 353 351 349 346 341 340 341 341 340 340 343 344 343 342 340 337 337 336 336 337 337 337 339 336 334 334 337 337 337 336 336 336 336 335 336 336 336 336 336 336 337 336 336 335 335 335 336 336 336 337 337 337 337 337 335 333 332 333 332 330 327 324 326 328 329 331 332 331 331
351 352 349 350 351 351 353 354 356 358 358 359 358 356 356 354 353 350 347 344 341 341 343 344 343 342 344 346 344 341 340 338 336 335 337 338 338 338 337 334 333 335 337 337 336 335 336 336 334 335 335 334 335 336 336 337 336 336 336 336 336 336 336 337 337 337 337 337 336 337 336 334 332 332 332 331 326 321 321 324 325 326 328 329 329
350 350 349 350 352 352 353 355 356 358 358 358 357 355 355 353 352 350 347 343 341 342 343 343 344 344 346 347 344 343 341 338 337 336 337 339 338 337 336 333 333 337 337 336 335 335 335 334 333 334 334 333 334 335 336 336 336 336 336 336 336 336 336 336 336 336 336 336 335 335 335 334 332 331 332 331 328 323 320 321 323 323 324 325 326
350 349 350 350 352 352 353 355 355 357 357 357 355 354 353 351 351 349 346 345 344 345 345 343 344 345 346 346 345 343 341 338 337 337 337 337 336 336 336 333 333 336 337 336 335 334 334 333 333 334 334 332 332 333 334 335 336 337 337 336 336 336 335 335 335 335 336 336 336 334 334 334 332 331 331 331 330 327 322 320 321 322 322 323 325
350 349 350 350 351 353 354 355 356 357 358 356 354 352 351 350 349 348 346 346 347 347 346 344 344 346 346 345 345 343 341 339 337 337 337 336 336 336 333 332 334 336 336 335 335 334 334 334 334 334 333 332 332 332 332 334 335 337 337 336 336 336 336 335 336 336 335 335 335 334 334 334 332 331 331 331 330 329 326 321 320 321 322 323 324
349 348 350 351 352 353 353 356 356 356 357 355 353 352 350 350 348 347 347 346 347 347 346 344 346 347 347 345 345 344 342 340 339 339 338 337 336 333 330 331 334 334 334 335 335 335 334 335 335 334 334 333 333 332 332 334 335 336 336 336 337 336 336 336 336 336 335 335 335 334 333 333 333 332 331 331 330 329 328 325 321 321 322 322 323
349 348 350 351 351 352 354 355 356 357 357 354 352 351 350 350 349 348 348 347 347 347 346 346 347 347 347 345 344 344 342 341 340 339 338 336 333 330 330 332 333 333 334 334 335 335 335 335 335 335 335 334 333 333 333 333 335 335 335 336 336 336 335 335 335 335 334 334 334 333 333 333 333 332 331 330 331 329 329 328 324 322 322 322 323
352 351 353 353 351 354 355 355 357 357 356 354 352 351 350 350 349 348 348 347 346 347 347 346 347 347 346 345 344 344 342 341 341 339 338 335 332 331 331 333 333 334 335 335 335 335 335 334 334 334 334 334 334 334 332 332 333 333 333 333 335 335 335 335 333 332 331 332 333 333 333 333 332 332 331 331 331 330 329 328 326 324 323 324 325
356 355 357 356 355 358 356 355 358 357 356 354 351 351 351 350 350 349 349 348 347 347 347 347 347 346 345 344 344 343 342 341 341 340 338 335 333 333 334 334 335 335 334 332 332 332 332 331 331 332 332 333 333 334 333 332 333 333 332 332 333 334 335 334 331 328 327 329 331 332 332 332 332 331 331 331 330 330 329 328 328 326 325 326 326
359 358 359 358 358 360 358 355 357 357 356 354 352 351 352 351 350 349 349 349 349 348 348 347 347 346 345 344 344 343 343 342 341 341 339 336 335 335 336 337 335 332 331 331 331 331 330 330 330 331 331 331 332 332 332 331 332 333 332 332 333 334 334 333 328 325 326 327 329 331 331 331 332 331 331 330 330 329 328 328 327 327 327 327 328
358 357 358 359 359 361 361 357 356 357 356 354 353 352 351 351 351 350 350 350 349 349 348 347 347 346 345 344 344 343 342 342 341 341 338 335 335 336 337 337 333 331 332 332 332 331 331 330 330 330 330 330 330 330 330 330 331 332 332 332 333 333 334 331 326 325 326 326 328 330 330 331 330 330 330 330 330 329 328 327 327 327 327 328 328
357 355 357 360 358 360 360 357 356 357 356 354 352 352 352 351 351 351 350 350 350 350 348 347 347 346 345 344 344 342 342 342 341 339 336 333 334 336 336 335 333 332 333 333 332 331 331 331 330 330 330 329 329 330 330 330 330 332 332 333 333 333 333 330 327 326 326 326 328 329 330 330 330 330 330 330 329 329 329 328 327 328 328 328 329
356 355 356 357 357 358 358 355 355 356 355 353 352 351 351 351 351 350 350 350 350 349 349 348 347 346 345 344 343 342 342 340 339 338 335 332 334 336 337 335 333 333 333 332 331 331 331 332 331 330 330 330 330 330 330 330 331 332 332 333 333 333 332 330 328 327 326 326 327 327 329 330 330 330 329 329 328 329 330 329 328 328 329 329 329
358 356 354 354 356 358 356 353 352 354 353 351 350 350 350 350 351 349 349 350 350 349 348 348 346 345 345 344 343 341 340 339 339 338 335 333 335 337 337 336 335 333 333 332 331 332 334 333 332 330 330 330 330 330 329 330 331 331 331 332 332 332 331 330 329 328 326 326 325 326 328 329 329 329 328 328 328 329 330 330 329 329 329 329 330
360 358 355 354 355 356 357 355 351 351 352 350 350 350 349 349 349 348 348 349 348 348 348 347 346 345 344 344 342 341 339 338 339 338 336 335 336 337 337 335 335 333 332 332 332 334 334 332 332 331 330 331 330 330 330 330 331 331 330 330 330 331 331 330 329 328 327 325 324 325 326 328 328 328 327 327 328 328 329 330 330 330 330 331 330
365 362 359 357 355 356 357 355 349 349 351 350 350 349 348 347 347 347 347 347 347 347 347 347 346 345 344 344 342 341 339 338 339 339 337 336 336 337 336 335 335 333 332 333 334 334 334 333 331 330 331 330 330 330 329 328 329 330 330 330 330 331 331 330 329 328 327 326 326 326 326 327 327 327 327 327 327 327 328 329 329 329 330 330 330
369 367 362 359 357 355 353 351 348 349 350 349 349 348 347 347 345 345 345 344 345 346 346 346 346 345 344 344 343 342 341 340 340 339 338 337 336 336 336 336 335 333 333 334 335 335 334 333 332 331 331 330 330 330 329 328 329 329 329 329 329 329 330 330 329 328 327 327 327 327 328 328 327 327 327 327 327 328 328 328 329 329 330 330 329
369 367 364 362 358 353 350 350 349 348 348 350 349 347 347 346 344 342 342 342 344 345 345 345 344 344 345 343 343 343 342 342 341 340 339 338 337 337 336 335 335 334 334 335 334 335 335 334 333 332 330 330 330 330 329 328 329 329 328 328 327 327 329 329 329 328 327 327 327 329 330 330 328 328 327 326 326 327 328 329 330 330 329 328 326
373 370 368 366 362 354 350 349 349 349 349 348 348 347 345 344 343 341 341 342 343 344 344 344 343 343 342 339 339 341 343 343 342 340 339 337 336 336 335 335 334 334 334 335 335 335 335 333 333 332 330 331 330 330 329 329 330 329 328 327 326 326 327 327 328 327 326 326 328 331 331 330 329 329 326 325 326 327 328 330 329 328 326 324 323
387 381 372 366 360 355 352 351 350 349 348 348 347 346 343 341 340 341 340 341 342 342 342 341 339 337 335 334 335 338 341 342 340 338 337 336 335 335 335 335 334 333 334 335 335 336 336 335 333 331 331 330 330 329 329 330 330 328 327 326 326 325 326 327 327 326 325 325 327 329 330 330 330 329 325 325 325 326 328 328 326 324 323 323 324
374 368 362 358 355 355 354 353 351 349 349 348 346 343 341 338 338 339 339 339 339 339 338 338 336 333 332 334 335 336 338 338 336 336 335 335 334 335 335 335 335 335 335 336 336 336 336 336 334 332 331 330 330 330 330 330 329 328 327 327 327 326 326 326 326 325 323 323 324 326 328 330 330 327 324 325 325 326 327 326 324 323 324 324 325
346 346 351 353 355 355 353 353 353 350 348 347 344 341 338 336 336 336 336 336 336 336 335 335 334 333 334 336 336 336 337 336 336 336 335 335 336 336 336 336 336 336 336 336 337 337 336 336 334 333 332 331 330 331 330 329 329 328 328 328 327 327 326 326 327 325 322 320 320 323 325 327 326 324 325 326 325 325 326 325 323 324 325 325 325
338 342 348 351 353 354 353 353 352 349 348 346 341 338 336 334 334 334 334 334 334 333 334 334 333 334 336 338 338 338 338 337 337 337 336 337 338 337 336 336 336 337 336 335 337 337 336 334 332 331 332 331 330 330 330 329 328 328 329 328 326 326 326 327 327 325 322 320 320 320 321 321 322 323 324 324 324 326 326 324 323 324 325 324 324
353 352 351 351 354 354 353 353 350 348 346 343 338 336 334 333 333 333 333 334 333 334 335 336 336 337 339 340 340 339 339 338 338 338 338 338 338 337 336 336 336 337 337 337 337 337 336 334 332 330 330 331 331 330 329 329 329 329 329 327 325 326 327 328 327 323 321 321 320 320 320 320 322 323 323 324 325 325 324 323 324 324 323 322 322
358 359 360 358 355 355 353 351 350 346 342 338 336 335 334 334 334 333 333 334 333 335 336 335 336 338 340 340 341 341 341 340 339 339 338 338 337 337 337 336 337 337 338 337 337 336 335 334 332 330 330 329 330 330 330 330 330 330 329 326 325 327 328 328 326 322 321 321 320 320 321 322 324 324 324 325 324 323 323 324 324 322 320 320 320
359 359 362 359 356 356 352 349 348 345 340 337 336 335 334 334 335 334 333 333 334 336 336 335 334 336 338 341 343 343 343 342 341 340 339 338 337 337 337 336 336 336 337 337 336 335 334 332 331 330 329 328 328 329 330 330 329 329 328 326 326 328 328 326 324 322 321 320 320 321 322 323 324 323 322 322 322 323 324 324 322 320 318 318 318
357 357 357 356 352 350 347 345 345 343 339 337 336 336 335 334 334 334 333 333 334 336 335 334 335 337 339 343 344 344 343 342 342 340 338 337 337 337 336 336 335 336 336 335 334 333 332 330 329 329 329 328 327 327 328 329 329 328 327 327 327 328 327 324 323 322 321 320 321 322 322 323 323 322 321 321 323 324 323 321 320 319 317 317 317
349 351 353 350 346 345 344 343 342 341 339 336 336 337 336 334 334 335 334 334 335 335 335 337 338 341 343 344 344 344 343 342 341 340 338 337 336 336 335 335 335 335 335 333 332 332 330 329 329 329 328 328 328 327 327 329 329 328 327 328 327 326 325 323 322 321 320 320 321 322 322 322 321 321 322 324 324 323 321 320 320 319 316 315 316
345 345 348 348 346 344 343 341 342 342 341 338 337 337 337 337 336 337 338 338 338 337 338 340 342 343 344 345 345 343 342 341 340 340 339 337 336 336 335 334 334 334 333 332 332 331 330 329 329 329 329 328 328 328 328 329 330 328 328 328 327 325 324 322 320 319 319 320 321 321 321 321 321 322 324 325 325 322 319 319 319 318 315 314 315
342 344 346 345 344 342 341 341 342 342 342 341 339 339 339 338 336 338 342 342 340 342 343 343 344 345 345 346 345 342 340 340 339 339 338 337 336 335 334 333 333 333 333 332 332 331 330 328 328 328 327 327 327 328 330 331 330 328 327 327 325 324 322 320 318 318 318 320 320 319 320 322 323 325 326 325 323 320 318 317 317 317 315 314 313
341 342 342 342 342 341 341 341 341 342 343 343 342 341 341 336 331 334 337 335 333 336 341 343 345 345 345 346 344 342 340 340 338 338 337 336 335 334 334 333 333 333 332 332 331 331 329 328 328 327 327 327 328 329 331 331 329 327 326 326 324 322 320 318 317 317 318 319 319 320 323 324 324 325 324 323 320 317 316 315 315 316 314 312 311
340 341 341 341 341 341 340 340 339 341 343 342 341 340 337 332 329 330 333 334 334 336 339 343 344 344 345 344 343 342 341 339 337 337 336 335 335 334 333 333 333 332 332 332 331 330 328 328 328 328 329 329 329 330 331 331 329 327 326 324 323 321 318 317 317 317 318 319 321 322 323 322 321 321 321 319 317 316 315 314 313 313 312 311 311
339 339 340 341 340 340 340 338 337 339 341 340 340 339 335 332 332 333 334 335 338 339 342 344 344 344 344 343 342 341 340 338 337 336 335 334 334 333 333 332 332 332 332 331 331 330 329 329 329 329 329 330 330 330 330 329 328 327 325 323 321 319 317 316 317 318 319 320 320 320 319 319 318 318 317 316 315 315 313 312 311 309 308 308 310
339 339 340 340 339 338 338 336 336 339 340 338 338 338 337 333 330 330 327 327 333 340 343 344 344 343 341 341 340 340 339 338 336 335 334 332 331 331 331 331 331 331 331 330 330 329 328 328 329 328 329 329 329 329 329 327 325 324 323 321 319 317 317 317 318 319 319 318 317 317 316 316 315 315 314 313 312 312 310 310 309 307 305 306 307
339 339 338 338 337 336 335 335 335 337 337 335 333 332 330 326 324 323 323 326 333 339 339 339 339 338 337 338 338 339 339 337 335 334 333 331 330 329 329 329 329 329 329 328 327 326 325 325 325 326 326 326 327 327 326 325 323 322 321 319 318 317 317 318 318 318 318 317 316 315 314 313 313 312 311 310 310 309 308 308 308 306 304 304 305
Wind_Speed
11 18 21 23 26 27 27 29 30 29 29 28 25 23 24 25 27 28 26 24 23 24 22 21 21 19 17 16 15 15 13 11 11 11 9 7 5 5 6 4 4 3 2 1 1 1 2 3 3 3 4 6 7 8 9 9 9 9 9 10 12 13 14 13 11 12 11 11 12 13 15 14 11 11 12 12 14 16 18 21 23 23 22 23 24
11 15 18 22 25 27 27 28 29 28 27 27 25 24 24 24 24 25 24 24 23 23 22 21 20 19 18 17 16 14 12 10 8 8 7 7 7 7 7 5 4 3 3 2 2 0 1 1 2 2 4 7 8 8 8 8 7 6 7 8 9 10 12 10 9 8 6 6 7 9 12 10 8 8 7 8 10 13 15 17 19 21 23 24 25
10 12 15 19 23 25 26 27 28 28 27 26 25 23 24 24 23 23 23 23 23 22 21 20 19 18 16 15 14 12 10 8 6 6 7 7 7 6 6 6 6 5 4 4 3 3 3 2 1 3 6 7 7 6 5 6 7 6 5 6 7 7 8 7 6 5 5 6 6 5 4 5 7 6 6 11 13 12 12 12 14 17 17 18 19
11 11 13 17 21 23 24 25 26 26 26 26 25 24 23 23 23 24 23 22 23 23 20 18 18 17 14 12 11 10 10 9 7 6 6 6 6 6 7 8 9 7 5 4 4 3 2 1 3 5 6 5 5 5 6 6 6 5 4 4 5 5 5 5 5 6 6 5 3 2 1 2 3 3 9 15 11 9 12 12 12 12 12 13 15
13 13 12 14 18 21 24 25 25 25 26 26 26 26 24 23 24 25 24 22 22 22 20 18 18 17 14 13 12 11 10 11 11 11 10 10 10 9 9 9 8 6 5 4 3 2 2 2 4 5 5 5 5 6 6 5 5 4 4 4 5 4 4 5 5 6 7 4 2 2 1 1 2 4 9 8 6 12 14 11 11 11 13 15 16
14 14 14 14 18 21 23 25 24 25 27 27 27 27 26 25 25 25 24 23 22 21 20 19 19 19 17 17 16 14 13 15 15 12 10 9 9 9 9 7 5 4 4 3 2 2 2 2 4 5 4 4 6 7 6 5 5 5 5 5 5 4 4 5 6 7 6 4 4 4 3 3 4 5 5 3 8 13 10 10 13 13 14 16 17
14 15 14 15 18 20 21 25 26 26 28 29 28 27 27 27 26 26 26 24 23 21 21 20 20 20 19 19 19 18 16 15 14 10 8 7 8 8 6 4 3 3 2 3 2 3 3 3 3 4 3 4 6 7 6 6 5 5 5 6 6 5 5 5 6 7 5 4 4 4 5 5 6 5 3 2 6 7 7 14 15 13 16 17 16
14 14 14 16 19 21 23 26 28 28 29 29 29 29 29 28 28 27 26 25 23 22 22 21 21 21 19 18 18 18 16 13 11 10 8 7 7 6 4 4 4 3 3 3 3 3 3 3 3 3 3 5 7 6 5 5 5 4 4 5 6 5 5 5 6 6 4 5 6 5 5 5 5 6 6 5 3 3 8 12 12 16 19 17 15
16 16 16 17 21 25 27 29 30 30 30 31 31 31 30 29 29 27 26 26 24 23 23 22 22 22 20 19 18 16 14 13 11 10 10 9 8 7 5 6 5 4 4 4 3 3 3 3 3 4 5 7 7 5 4 4 4 4 4 5 5 5 4 5 6 5 4 5 6 5 5 5 4 6 6 4 3 3 4 6 10 17 18 18 18
15 16 16 20 25 29 30 31 31 30 31 32 32 31 31 30 29 28 27 26 25 24 24 23 23 22 21 19 18 16 14 13 12 11 10 9 8 8 7 7 6 5 5 4 3 3 3 3 4 5 7 7 6 5 3 3 4 4 5 5 5 4 3 3 4 4 4 5 5 5 5 5 3 3 3 3 3 4 4 5 9 11 11 18 23
13 14 16 21 28 30 31 31 31 31 32 33 32 32 32 31 30 29 28 27 26 25 25 25 24 23 22 20 18 17 16 14 13 12 11 10 10 10 9 8 6 5 4 3 4 4 4 4 5 6 6 5 4 5 4 4 4 4 5 5 4 4 3 3 3 3 3 4 4 4 5 4 3 3 4 5 4 4 3 4 8 11 10 14 20
14 13 14 17 20 24 27 29 30 31 31 32 32 32 32 32 31 30 30 29 28 27 27 25 24 23 22 19 18 18 17 16 15 13 13 13 13 12 11 8 6 6 6 5 5 5 5 5 6 6 5 4 3 4 5 5 5 5 4 4 4 4 3 3 3 3 4 4 4 4 4 4 3 4 5 6 5 5 5 4 7 11 8 11 19
15 13 14 14 14 18 24 27 29 31 32 33 33 32 33 33 33 32 32 31 29 29 27 26 25 23 21 19 19 18 17 17 15 14 14 14 13 13 11 9 8 8 7 7 6 5 6 7 5 4 4 3 3 3 4 5 4 4 4 4 5 5 3 3 4 4 3 3 2 3 4 4 4 4 4 5 5 6 6 5 7 9 6 11 18
15 14 14 14 14 18 24 27 29 31 33 34 34 34 34 34 34 34 33 33 31 29 28 27 25 23 21 21 20 19 18 16 14 14 14 13 14 13 11 10 9 8 8 8 6 5 5 5 3 3 3 3 3 4 4 5 4 3 4 5 5 4 3 3 3 3 2 2 2 2 3 4 4 5 4 4 5 6 6 5 6 7 7 11 13
13 14 15 15 17 22 25 27 29 31 34 35 35 35 35 35 36 35 34 33 32 31 30 29 26 23 22 22 20 19 18 16 14 14 14 14 14 12 10 10 9 7 8 8 6 4 4 4 3 3 2 2 3 4 4 4 4 3 4 5 4 3 3 3 3 3 3 3 3 3 3 4 4 4 3 3 4 5 7 7 5 5 5 6 7
13 14 15 15 19 24 26 27 29 31 33 34 35 37 37 36 36 36 35 35 34 32 31 29 26 24 23 22 21 19 17 15 14 14 13 13 12 10 11 10 8 7 8 8 7 5 4 4 4 3 2 2 3 4 5 5 5 4 3 4 5 4 3 4 4 5 5 5 5 4 3 4 4 3 2 2 3 4 6 7 6 4 4 4 4
14 14 14 15 18 23 26 28 29 30 33 35 37 39 40 39 38 36 35 35 34 33 32 30 27 26 24 23 21 20 17 15 14 13 13 12 11 11 11 9 8 8 8 8 7 6 5 5 4 4 4 3 3 4 5 6 6 6 5 5 7 6 5 5 5 6 6 6 5 5 4 4 3 3 4 3 3 5 5 5 5 5 5 5 3
16 15 14 14 17 22 26 29 32 34 36 38 39 41 41 40 40 38 36 35 35 34 33 31 29 28 26 25 23 20 17 16 13 12 13 13 12 12 10 9 9 9 9 8 7 7 7 7 6 5 5 5 4 4 5 5 6 6 7 8 8 7 6 7 7 7 7 7 6 6 6 6 5 5 5 6 5 5 6 5 5 5 5 4 4
13 13 12 12 15 22 27 30 32 35 37 38 39 39 39 40 40 40 39 38 37 36 34 33 31 29 27 26 24 21 18 16 14 13 14 13 13 12 10 10 10 9 10 9 9 9 10 9 7 7 6 6 6 6 6 6 7 7 8 9 9 8 7 7 8 8 8 8 8 8 8 8 7 6 7 8 8 6 7 7 7 7 7 6 7
12 12 12 13 15 23 29 31 33 35 35 36 37 37 38 39 39 39 38 36 36 35 34 34 32 30 27 26 24 21 19 17 15 14 14 13 12 12 12 11 11 11 11 11 12 12 12 10 9 8 8 7 6 7 8 9 9 9 9 10 9 8 8 8 9 9 9 10 11 11 10 9 9 8 9 10 11 9 8 8 8 9 10 9 10
12 12 13 13 16 23 29 31 33 33 32 32 35 36 37 37 37 38 36 35 35 35 35 34 33 31 28 27 25 22 20 19 17 15 14 13 12 12 13 12 13 12 13 14 14 14 13 12 10 11 11 9 8 7 7 8 10 10 9 10 10 9 10 10 11 12 12 12 13 13 12 10 10 11 11 12 13 11 10 10 10 10 12 12 12
13 13 14 13 15 21 26 27 27 28 29 31 33 33 34 35 36 36 36 36 36 36 35 34 33 31 30 28 26 23 21 20 18 16 14 13 12 11 12 13 13 13 14 15 15 15 15 14 13 13 14 13 11 9 8 9 10 11 10 10 11 11 11 12 13 14 14 13 14 14 13 12 12 13 14 14 15 14 13 12 12 11 12 13 13
13 13 13 12 15 21 25 25 27 29 30 31 32 32 33 35 35 35 35 36 36 36 35 34 33 32 30 28 26 23 22 21 19 17 15 13 11 10 11 12 13 13 14 16 17 17 17 17 17 17 17 16 15 12 10 10 10 10 9 10 11 12 13 13 14 15 15 14 14 14 14 13 13 15 16 16 17 17 16 15 14 13 13 15 16
11 12 11 11 14 18 20 22 24 26 28 29 31 32 32 33 34 34 35 37 36 35 34 33 33 32 30 28 26 24 23 23 21 19 16 13 11 11 12 13 12 13 15 16 16 16 15 15 16 16 17 18 17 15 12 11 11 9 8 9 11 11 12 12 13 14 14 13 13 14 14 12 13 15 17 17 18 19 19 18 17 15 14 15 18
10 10 10 10 12 13 15 19 23 25 27 29 31 31 31 33 34 34 34 35 36 34 34 34 33 32 30 29 27 26 26 24 23 20 17 14 12 13 13 13 13 14 14 12 12 12 11 10 10 11 12 13 13 14 13 12 12 11 10 10 10 10 10 11 12 12 12 11 12 13 14 13 14 16 17 17 18 19 20 20 19 18 16 17 18
11 11 11 11 12 12 14 19 23 25 27 29 30 31 31 32 33 34 34 34 34 34 34 34 33 32 32 30 29 28 27 25 24 21 17 15 15 16 16 15 14 13 13 12 11 10 10 9 8 8 8 8 9 11 13 13 13 13 12 12 12 11 11 11 11 11 10 10 11 12 13 13 14 16 16 16 17 18 20 21 21 19 18 18 18
11 11 11 11 12 13 15 19 23 26 28 30 31 31 32 32 33 33 33 34 33 33 34 34 33 33 33 33 31 29 27 26 24 21 17 16 17 18 17 16 15 15 14 13 11 10 10 9 8 8 7 7 8 9 11 12 13 13 13 13 13 12 12 12 11 11 10 11 11 12 12 13 14 15 15 15 16 18 19 20 20 20 19 19 19
10 11 12 13 14 14 14 17 22 25 26 29 30 31 33 33 33 33 33 33 33 33 34 34 33 34 34 34 32 29 27 26 24 21 18 17 18 19 18 17 16 16 15 13 12 11 10 9 9 9 9 10 9 9 10 11 12 13 14 13 13 13 14 14 12 12 12 12 12 12 12 13 13 14 14 15 16 17 18 20 20 20 20 19 18
11 12 13 14 15 14 14 16 21 23 25 27 28 30 31 32 33 33 33 34 34 33 34 35 34 34 35 35 32 29 27 25 24 22 19 20 21 20 20 19 18 18 17 16 14 11 10 11 11 11 11 11 10 10 10 11 12 12 13 13 13 14 15 15 14 13 13 13 13 12 12 12 12 13 14 16 16 15 17 19 19 19 19 19 18
13 13 13 14 15 15 15 15 18 22 24 26 27 29 31 32 33 33 34 35 35 34 35 35 35 35 36 36 33 30 27 26 25 23 21 21 22 21 21 21 21 20 19 17 14 12 12 13 14 13 13 12 11 11 10 11 12 13 13 13 14 15 16 15 15 14 14 14 13 11 11 11 12 14 15 16 15 13 14 17 18 18 18 18 18
12 12 13 13 14 14 14 14 18 24 27 28 29 31 32 33 34 35 35 36 37 37 37 37 37 37 38 36 34 31 28 27 26 24 22 22 23 22 22 22 22 21 20 17 15 14 15 15 15 15 15 14 12 11 11 12 14 15 15 15 16 17 16 16 16 15 15 15 13 11 11 11 13 14 15 14 13 12 12 14 16 16 17 18 19
11 12 12 13 13 13 13 14 19 25 27 29 30 30 30 31 33 35 36 36 38 38 38 38 38 38 37 36 35 33 30 28 26 25 24 24 24 24 23 24 24 22 21 18 17 17 16 16 16 16 16 16 15 13 12 13 15 16 16 17 17 17 17 17 17 16 16 15 15 13 12 12 13 13 13 13 12 12 12 12 14 15 16 18 19
10 10 11 13 12 12 14 18 22 26 30 33 34 33 33 34 35 36 37 37 38 39 39 39 38 38 36 36 36 34 31 29 27 26 26 26 26 26 26 27 26 24 21 20 20 19 18 18 18 18 18 18 17 14 13 14 15 15 15 15 15 16 17 18 18 17 16 16 15 14 14 14 13 12 12 13 13 14 13 13 14 15 17 19 20
8 9 10 10 10 11 16 21 25 29 33 34 34 33 34 35 35 36 36 37 37 37 37 37 36 36 35 34 33 33 32 31 29 28 28 28 27 28 29 28 26 23 22 22 22 21 19 18 19 19 19 19 17 15 15 16 16 14 13 12 13 14 16 18 18 16 16 15 15 15 15 16 15 13 13 14 14 15 14 14 15 17 19 21 21
8 9 9 8 8 10 14 19 25 29 30 29 30 30 31 33 34 34 35 37 38 37 36 36 33 32 31 30 29 30 32 32 30 29 29 29 28 29 29 28 26 24 24 24 24 23 21 19 19 19 20 19 18 16 16 16 15 14 12 11 11 12 15 17 17 15 15 15 15 15 16 17 16 14 14 14 14 14 13 14 16 18 21 22 21
9 10 10 11 13 15 19 22 24 25 25 27 29 31 31 31 32 33 33 35 35 32 28 28 28 27 26 25 25 29 32 32 31 29 28 28 29 30 30 28 26 25 25 25 25 23 21 20 19 19 20 20 19 18 17 16 15 14 13 11 10 11 14 15 15 13 13 14 14 14 15 16 16 15 15 14 13 12 12 13 16 20 22 22 20
10 12 15 18 21 24 24 24 25 26 28 30 31 33 33 31 29 30 31 32 33 30 25 25 27 27 26 26 25 29 32 31 29 28 28 30 31 29 27 25 24 24 24 24 25 25 23 23 22 21 21 21 22 21 19 17 16 14 13 11 10 12 13 14 13 12 12 12 12 13 13 14 15 16 15 13 12 12 13 14 17 20 21 21 20
10 12 14 18 22 23 22 21 22 25 27 30 32 33 33 30 28 29 29 31 33 32 28 29 30 29 29 29 27 28 30 29 27 28 30 30 27 24 23 23 23 24 24 25 25 24 24 24 24 23 23 23 23 22 20 18 16 14 13 11 10 12 13 14 13 12 12 12 12 13 13 14 16 15 13 12 13 13 14 16 18 18 18 20 21
11 13 14 17 19 19 18 19 21 24 28 33 35 36 33 29 27 28 29 30 31 30 28 30 31 31 31 30 27 26 28 29 29 30 29 25 23 24 26 26 25 25 26 26 24 23 22 23 24 26 27 27 24 21 20 19 16 14 12 11 11 12 13 14 13 13 13 13 14 14 12 12 13 11 11 13 13 14 16 18 16 14 14 17 20
10 13 14 15 16 17 16 17 19 20 22 22 22 24 25 23 24 28 31 31 33 32 31 32 33 33 31 28 26 26 28 29 29 29 27 24 22 23 25 24 24 23 24 24 24 24 25 26 25 25 28 29 26 22 20 18 16 14 12 11 11 12 13 14 13 14 15 15 16 14 11 9 9 9 11 12 12 15 18 15 11 9 12 15 18
9 10 11 11 13 15 16 16 15 14 14 12 10 12 15 12 11 19 28 33 36 34 32 33 33 30 28 26 26 28 28 28 28 27 24 21 19 19 20 20 20 21 23 24 24 24 26 27 25 22 20 19 18 18 19 18 16 14 12 11 11 12 13 13 13 14 15 17 17 14 11 9 9 10 11 12 15 17 14 8 6 8 11 13 15
10 11 12 14 15 16 17 17 18 20 23 23 21 19 17 13 10 18 28 34 36 34 32 32 30 28 27 26 26 26 25 25 25 24 21 18 17 17 17 16 18 22 24 26 26 25 25 24 22 18 15 11 10 13 16 17 16 14 12 11 11 12 12 12 13 15 17 17 16 14 13 11 10 11 13 15 16 13 7 3 4 8 11 13 13
10 11 13 16 15 14 15 14 15 19 23 27 29 25 21 18 19 30 33 31 30 31 31 29 27 26 25 24 22 22 22 23 22 21 19 18 17 17 15 15 19 23 24 25 25 23 22 21 19 17 16 15 16 16 18 18 17 14 12 12 12 11 11 11 13 16 18 17 15 14 13 12 12 13 15 14 10 5 2 2 5 8 11 13 13
9 10 14 17 16 15 16 15 15 18 20 24 28 25 20 19 24 34 30 25 26 27 26 24 24 24 22 20 19 19 19 19 19 18 17 17 17 16 15 17 20 22 22 24 23 21 21 20 19 18 17 17 18 18 20 20 17 14 13 12 12 11 11 11 13 16 17 17 16 15 14 13 14 15 13 8 5 4 2 3 5 8 12 14 13
11 12 14 18 19 18 19 18 16 18 19 22 25 24 21 19 23 28 23 21 21 22 22 22 21 19 18 17 17 16 16 16 16 16 16 17 17 17 18 18 20 21 22 22 22 22 21 20 18 18 18 17 16 16 19 19 17 14 13 13 12 11 10 11 13 15 16 16 15 15 15 15 14 12 7 6 7 3 3 4 5 8 12 14 14
11 12 14 18 20 19 20 19 17 17 20 22 22 20 19 13 11 14 17 17 12 13 17 17 16 15 16 16 16 15 14 14 14 14 15 15 16 17 17 18 20 21 21 22 22 22 21 20 19 18 18 17 14 14 18 19 17 15 15 14 13 11 9 11 13 14 15 15 15 14 14 12 8 4 4 7 5 3 4 3 4 7 10 13 14
9 12 15 18 18 17 17 17 17 17 20 23 22 21 22 17 7 7 14 16 11 14 15 15 16 17 16 16 16 15 15 14 13 14 14 14 14 14 14 16 19 20 20 21 21 20 19 19 19 18 17 16 14 15 18 19 18 17 16 14 12 9 9 10 12 13 13 14 13 10 6 3 4 7 8 7 5 4 4 4 4 5 9 12 12
7 10 13 15 15 15 16 17 17 19 23 26 25 23 23 22 12 9 11 15 17 17 14 14 16 17 17 16 15 14 15 16 14 13 13 12 11 12 12 14 16 17 18 20 20 19 18 17 16 16 16 15 14 16 19 20 19 18 17 14 11 9 9 9 10 11 11 11 7 2 6 8 9 9 8 6 4 4 4 5 5 6 10 12 10
6 8 11 13 14 15 17 17 17 20 23 26 26 23 21 20 16 15 15 15 15 13 12 15 16 16 15 14 13 14 15 15 13 12 11 10 10 10 11 12 13 14 16 18 18 17 15 14 13 13 14 14 15 18 19 18 17 16 15 12 9 9 8 7 7 8 9 5 3 8 9 8 7 7 5 4 3 4 6 7 7 10 12 13 12
8 9 11 14 15 16 19 19 19 20 22 22 22 22 20 17 13 8 5 6 10 13 14 16 15 14 13 13 12 12 12 11 11 11 11 10 9 9 10 11 12 13 14 14 14 13 11 11 12 12 13 14 16 17 17 16 14 13 13 11 9 7 6 5 4 5 4 1 7 9 8 7 6 5 5 5 6 6 8 9 11 13 15 15 15
11 12 13 15 16 19 21 22 22 22 21 19 18 17 14 9 4 4 6 0 10 14 14 13 12 11 10 9 9 10 10 10 10 11 10 11 10 10 10 12 12 12 12 11 10 8 6 6 8 10 11 13 14 15 14 13 13 12 11 8 6 5 4 3 2 2 2 5 6 7 8 7 6 6 6 7 7 7 9 11 12 14 16 16 16
Wind_Direction
158 163 162 157 156 153 156 164 169 170 170 172 168 164 165 169 179 184 186 187 186 188 192 194 197 201 205 208 210 214 219 226 232 239 250 258 254 250 255 250 235 205 135 106 77 19 6 354 333 325 317 314 314 312 310 311 313 312 312 314 314 312 311 314 319 317 312 309 311 312 311 311 312 310 303 296 287 281 282 284 284 281 277 273 273
150 157 159 156 154 153 155 158 163 167 169 173 174 171 169 168 172 176 181 185 186 190 193 196 199 199 199 201 206 212 219 224 224 222 218 223 234 243 247 240 210 166 134 134 138 197 275 262 269 292 307 307 307 305 302 304 311 315 316 318 316 311 311 319 325 319 305 304 313 314 316 324 335 330 322 320 312 300 294 292 291 289 285 284 281
158 160 162 161 159 159 161 163 166 169 172 176 177 174 175 176 177 177 180 185 190 194 196 199 202 201 202 205 206 208 205 195 190 197 206 218 223 221 220 206 176 156 150 155 164 178 191 198 256 315 320 313 310 313 314 316 321 319 315 316 316 314 319 335 343 328 305 306 312 309 320 338 340 348 348 331 323 314 311 311 308 304 301 298 291
168 167 167 166 164 165 167 168 171 172 173 176 177 176 178 181 182 181 183 189 192 196 199 200 199 199 202 201 193 186 182 176 169 172 178 167 153 156 169 164 155 155 157 160 170 182 209 269 319 327 332 331 332 339 340 344 343 337 335 331 325 324 333 344 343 332 323 321 316 297 322 324 316 347 335 326 330 333 330 332 333 332 331 323 312
171 172 173 170 169 172 173 173 174 175 176 178 180 181 183 183 184 186 187 189 192 195 197 196 194 189 186 180 175 173 172 170 156 143 138 136 137 141 149 153 158 171 182 196 218 251 277 296 322 332 344 356 359 359 358 2 9 10 7 355 340 333 334 332 330 336 336 324 274 255 309 309 274 326 327 324 334 333 335 341 341 340 339 332 327
173 174 176 175 173 174 176 176 176 179 182 183 185 186 186 186 187 190 191 191 193 194 194 194 191 186 181 177 179 178 171 169 168 158 146 144 147 149 154 164 177 189 209 236 262 292 282 278 315 339 357 5 1 359 1 3 8 17 14 7 2 350 339 329 325 335 343 330 289 262 265 264 261 307 323 310 316 322 332 334 327 331 334 332 329
176 177 176 175 174 174 177 179 179 184 186 186 187 188 189 188 189 192 193 194 195 194 194 194 191 187 184 183 185 184 177 176 182 184 174 162 156 159 162 172 195 213 252 277 291 297 288 289 319 343 354 356 352 348 355 2 8 21 21 14 14 7 354 343 337 340 349 350 328 301 292 282 263 270 276 289 316 317 321 325 328 332 331 329 331
177 178 178 177 178 178 179 182 183 187 188 186 187 190 191 192 192 194 195 195 195 193 192 192 189 185 185 186 186 186 183 178 180 188 195 194 186 188 194 201 215 233 260 273 274 277 283 296 311 320 330 342 342 337 347 5 11 22 24 17 12 8 1 352 351 355 352 344 339 325 314 306 281 274 276 281 293 297 315 324 328 326 327 331 333
179 179 180 180 181 182 182 184 186 188 188 188 190 192 193 195 194 195 195 194 193 192 191 190 188 186 185 185 181 181 181 175 178 185 189 191 189 192 198 200 209 233 253 254 247 257 272 274 278 297 322 334 337 332 339 3 9 6 2 1 355 350 351 349 351 358 353 339 335 326 313 313 309 298 288 278 263 270 303 318 321 326 331 332 330
182 181 182 183 184 184 184 184 187 188 189 190 192 193 194 195 195 195 195 193 192 192 190 188 188 188 187 185 181 176 174 174 179 182 183 184 185 188 193 198 213 240 250 241 239 264 268 254 272 303 318 327 338 338 326 333 346 339 333 334 335 338 344 351 355 356 352 340 333 325 313 310 309 293 280 284 275 261 268 296 314 326 325 322 326
185 183 184 186 185 184 182 182 185 187 189 191 191 192 193 194 195 194 194 192 191 191 190 189 191 191 189 188 185 180 179 183 185 187 189 187 186 190 193 204 220 227 228 235 249 257 246 251 283 302 311 318 334 342 333 317 310 316 326 329 341 360 10 9 2 354 348 340 336 332 322 313 289 271 285 298 283 262 284 302 307 314 303 302 320
185 185 185 185 182 182 181 182 183 184 187 188 189 190 191 193 194 193 192 191 191 192 192 192 192 192 190 190 190 187 188 192 192 190 190 187 187 188 190 199 205 199 207 227 228 224 237 265 281 287 299 306 308 321 328 321 301 298 321 339 352 3 10 2 354 348 345 339 341 344 343 338 313 298 303 299 283 281 304 300 294 310 305 294 313
186 185 184 183 180 181 182 181 182 183 185 186 187 188 189 191 193 192 191 191 192 192 193 192 191 192 193 190 190 191 191 193 193 191 190 190 190 188 190 194 193 197 210 217 218 234 256 263 262 270 282 280 276 285 306 319 305 286 311 332 338 340 332 335 342 346 350 345 348 352 353 356 346 333 324 311 299 286 284 281 290 304 297 297 313
187 186 184 184 182 182 183 181 181 183 185 185 185 186 187 189 191 192 192 192 192 192 192 192 192 194 195 190 188 191 192 194 197 195 195 197 195 195 197 194 195 205 210 211 225 249 249 231 228 263 270 250 259 270 283 305 306 298 316 321 320 316 305 318 334 341 345 339 341 350 351 355 355 347 333 317 305 285 275 275 295 309 294 290 306
186 187 186 186 183 182 182 182 182 183 183 183 183 184 185 187 190 192 192 191 192 193 192 192 193 195 194 193 193 194 195 196 195 195 197 197 197 198 196 193 195 204 207 212 221 224 211 212 239 266 269 257 264 269 276 287 293 307 324 318 312 306 296 302 311 311 320 323 317 320 335 342 345 347 337 323 311 298 301 300 297 311 305 291 300
187 190 188 186 184 182 181 181 183 183 182 182 183 183 185 188 190 193 193 193 193 193 193 194 194 193 193 196 198 196 195 195 191 195 199 198 200 200 191 191 198 202 210 215 214 218 224 232 252 261 267 287 282 274 277 276 273 280 298 310 312 303 296 303 303 299 306 315 308 292 307 327 331 329 321 328 329 318 319 319 307 294 297 308 309
189 191 186 183 182 182 182 181 182 182 182 183 184 185 186 188 189 192 194 194 193 194 195 195 196 194 194 198 199 198 197 196 193 196 197 195 198 196 194 203 208 208 217 217 216 230 237 237 253 262 268 286 288 280 280 273 267 266 271 293 304 297 287 289 294 297 300 307 304 281 283 301 297 286 285 286 313 320 321 326 322 307 295 302 307
191 191 185 182 182 182 182 183 184 184 185 185 186 186 187 188 190 191 193 194 194 195 196 196 197 196 197 199 199 200 202 199 196 194 191 191 194 198 208 219 210 207 215 219 225 232 231 238 249 252 262 273 270 269 274 270 264 265 270 283 294 293 283 279 283 288 292 299 300 287 279 277 265 262 271 268 280 317 328 325 328 325 306 289 282
192 189 184 183 182 182 183 184 186 187 187 187 186 186 187 189 191 192 194 196 196 196 196 197 198 197 198 200 201 204 205 201 196 190 189 194 199 206 222 228 215 212 217 225 238 238 236 242 243 242 256 264 257 254 259 265 266 268 270 275 285 286 281 282 281 281 286 288 283 280 276 270 262 259 259 259 268 300 324 323 323 322 313 298 284
191 188 186 185 183 185 185 185 187 188 188 187 185 186 187 189 190 192 194 195 195 196 197 197 199 198 197 199 202 205 203 201 198 195 197 203 207 216 231 231 221 220 226 234 244 245 244 243 237 238 250 257 256 253 253 257 261 264 264 267 273 273 274 283 283 277 278 276 273 275 275 266 261 264 260 253 257 275 301 313 316 314 312 308 291
190 187 186 185 183 186 188 188 188 187 187 186 185 187 188 188 189 190 191 192 194 196 197 198 198 198 198 200 203 205 203 202 202 202 207 212 217 225 230 228 224 227 233 238 244 247 250 249 242 243 249 252 253 251 252 256 257 258 257 256 259 259 264 275 278 275 273 271 272 276 275 265 261 268 266 255 253 260 277 293 303 303 304 308 298
189 188 185 183 183 186 188 187 185 184 185 186 187 187 187 188 189 190 190 192 194 196 197 199 198 197 199 201 203 203 204 205 205 207 213 217 222 223 221 224 229 231 233 237 244 249 253 255 252 251 253 254 252 250 252 255 256 258 257 255 253 252 257 265 269 271 272 270 269 271 272 266 264 268 268 259 254 256 263 274 286 290 293 303 302
187 186 183 182 183 184 184 183 183 185 186 186 186 187 188 189 189 189 190 192 196 197 197 197 197 198 200 200 201 202 204 206 207 209 212 216 220 216 215 226 233 237 243 247 251 254 258 262 260 258 259 258 254 250 249 252 254 257 260 258 254 254 259 264 268 271 276 276 271 266 267 266 264 267 268 264 259 257 260 264 272 280 285 296 302
184 184 184 180 180 181 181 183 184 186 186 185 186 188 189 189 189 190 191 193 195 196 196 196 197 198 198 198 200 203 205 207 210 212 211 208 210 210 215 229 241 252 258 257 256 257 259 261 261 259 261 262 257 249 245 249 251 254 264 266 260 259 263 266 270 275 279 280 275 268 267 269 270 271 272 269 263 261 263 264 266 274 280 292 301
178 177 176 173 176 180 182 185 185 186 187 187 188 189 189 189 190 190 192 193 193 194 195 196 196 196 197 198 201 204 206 208 213 216 212 205 208 216 224 237 248 254 252 245 241 239 239 245 250 253 258 259 253 246 244 249 251 254 267 273 268 265 265 266 270 276 278 277 275 272 272 273 274 275 276 272 267 265 266 267 267 271 279 291 298
174 174 174 175 179 183 185 187 188 188 188 187 188 189 189 190 191 191 192 191 192 193 194 195 195 195 197 200 202 205 207 210 216 217 213 210 216 224 233 243 246 237 225 216 215 216 220 229 234 236 242 244 242 243 247 253 254 256 263 271 272 270 266 265 268 275 279 278 276 273 272 272 272 276 277 275 276 275 271 268 267 270 280 290 293
176 173 174 176 181 186 187 189 190 190 189 189 188 189 188 189 191 192 192 191 190 191 192 193 194 195 198 200 203 206 209 212 217 217 214 216 222 229 236 239 232 221 213 213 219 223 224 227 228 231 247 261 261 256 257 263 263 260 261 266 272 273 266 263 267 278 286 285 281 277 275 274 275 277 279 282 289 289 281 272 268 272 281 285 287
179 176 179 181 185 190 190 191 192 191 190 190 190 189 189 190 191 191 191 190 190 189 189 191 194 196 199 201 204 209 211 214 216 215 216 219 222 227 232 230 225 223 224 232 242 240 229 230 239 249 267 275 270 261 262 269 269 263 259 262 267 267 264 263 268 279 289 290 287 283 280 279 279 277 280 289 298 297 287 276 271 275 281 281 284
183 185 187 187 188 189 189 192 192 190 189 190 190 190 190 190 191 190 190 190 189 188 189 191 194 197 201 204 206 208 210 215 215 213 216 219 220 224 227 229 233 237 240 249 255 245 233 240 250 258 267 267 263 266 265 264 264 261 259 261 262 260 259 262 268 277 287 292 291 287 282 281 281 281 287 296 300 297 288 281 279 280 280 279 283
187 191 192 193 193 191 190 190 188 187 188 188 189 190 190 190 190 190 190 190 189 188 189 192 195 199 202 204 206 207 210 215 215 213 217 221 223 225 228 232 237 240 244 253 254 242 240 249 255 260 263 259 262 272 266 258 261 263 264 264 262 261 259 260 265 273 284 292 293 288 282 282 284 287 293 299 300 294 283 279 282 283 281 280 282
193 194 195 197 196 192 189 187 188 189 188 188 190 190 190 189 190 190 190 189 188 188 190 193 196 200 203 204 205 208 212 215 214 215 220 223 225 227 229 233 235 239 247 251 245 241 247 251 254 258 259 257 263 270 266 263 262 262 265 267 265 264 262 259 261 267 278 289 292 287 283 285 289 293 298 302 303 299 288 281 281 282 280 281 280
200 200 199 200 198 192 189 189 191 191 190 190 191 190 189 189 189 190 190 187 187 188 190 193 197 200 201 203 205 209 214 216 214 217 221 223 225 227 229 232 236 241 246 244 239 243 249 251 252 256 257 256 261 266 268 270 267 263 264 265 265 265 261 258 259 262 272 284 288 287 286 288 292 297 302 304 304 303 298 289 285 284 282 281 281
201 204 206 204 199 192 191 192 192 192 193 194 193 190 190 190 189 189 188 186 186 189 190 193 197 198 199 203 207 210 214 216 216 219 222 223 225 227 230 234 238 242 242 241 242 246 250 251 252 255 257 258 260 263 267 272 271 264 256 254 258 260 257 256 258 262 272 281 284 286 287 289 294 298 302 306 305 302 298 291 288 288 287 286 287
205 208 210 208 204 199 197 196 195 195 197 197 195 193 192 191 189 187 185 183 185 188 189 192 195 196 198 204 209 212 216 218 218 220 222 224 226 229 233 236 239 239 239 241 243 245 250 252 252 255 260 260 259 262 269 273 268 255 246 250 258 258 257 257 259 264 274 280 283 285 286 290 293 295 300 308 307 302 296 290 289 291 292 294 296
203 207 210 210 205 199 198 200 200 199 198 195 194 193 191 190 189 185 181 181 184 186 188 190 191 191 197 206 212 214 217 218 218 220 222 224 227 231 234 237 238 238 240 243 245 246 249 251 251 254 256 258 261 266 272 271 258 247 248 256 262 263 263 261 260 266 274 278 282 285 287 290 291 291 298 305 304 300 296 291 293 298 301 302 301
192 194 199 203 203 201 201 203 202 197 193 191 191 190 188 186 185 181 177 177 179 181 182 183 182 186 198 212 216 214 214 214 215 217 219 223 228 232 236 238 238 240 244 247 247 248 251 253 253 252 252 256 262 267 269 261 245 242 251 256 261 270 269 263 261 266 273 278 283 286 288 289 286 287 294 300 300 298 293 292 299 306 307 305 303
189 193 198 201 204 206 206 203 197 191 189 189 188 186 183 177 174 172 169 168 169 170 172 177 185 197 214 225 221 213 211 213 213 216 221 227 230 234 237 240 242 246 249 251 251 253 256 256 255 252 252 258 263 265 263 251 239 240 246 251 264 272 266 260 261 267 276 282 284 285 285 283 282 286 289 293 298 295 289 295 305 308 307 304 305
186 193 202 204 205 208 206 200 191 187 187 186 183 181 176 168 162 161 159 160 165 170 174 183 196 213 228 230 224 216 214 214 216 222 228 230 230 232 237 242 245 248 250 253 256 259 260 262 263 261 259 260 263 264 257 242 234 238 242 251 267 269 259 255 260 270 280 286 288 288 285 280 281 284 284 290 297 290 288 301 307 305 303 303 308
184 186 196 205 204 201 196 188 182 184 188 186 182 178 170 161 156 155 154 161 171 178 185 196 209 223 230 228 223 219 218 220 223 229 231 230 229 232 237 241 244 246 250 253 255 257 260 269 276 277 274 268 261 257 251 239 232 234 242 257 266 259 253 254 261 274 283 289 295 295 291 282 277 279 286 293 295 289 293 305 307 300 300 305 311
177 180 187 193 189 181 174 172 176 182 182 179 175 168 157 152 156 156 158 171 185 192 200 209 218 223 225 225 226 225 224 224 226 229 230 229 230 233 235 238 242 244 246 249 250 252 255 261 264 269 278 277 266 255 246 236 230 233 243 256 256 249 250 255 264 279 288 294 299 299 293 283 279 286 294 295 293 294 299 304 302 303 309 309 311
151 159 160 153 153 154 149 152 161 158 143 127 120 127 131 139 164 168 170 184 198 204 210 215 219 222 225 228 229 227 225 225 227 230 230 227 228 230 229 232 238 241 240 242 249 255 258 261 259 260 274 284 279 266 250 233 228 235 243 249 248 243 246 255 267 281 290 297 301 300 295 287 283 291 296 296 297 298 297 292 294 317 323 316 311
117 122 128 127 132 139 139 148 161 158 152 148 145 149 156 165 203 212 201 200 205 209 212 215 218 223 228 230 227 225 224 226 228 229 226 222 225 228 225 230 241 245 245 246 252 257 258 260 261 256 255 258 262 265 256 243 237 237 237 240 241 238 242 255 270 283 292 297 299 297 296 294 290 296 300 299 297 292 277 266 303 329 334 327 321
94 109 130 130 125 124 125 132 144 145 148 151 153 162 174 180 211 229 221 208 205 208 210 214 220 225 228 225 222 222 224 225 227 227 224 223 226 226 225 238 249 250 249 248 249 249 248 250 252 247 243 239 238 245 252 251 244 235 230 232 232 232 241 256 273 287 293 296 295 293 295 296 296 301 302 295 282 252 214 311 331 341 340 334 332
95 110 128 125 114 113 117 121 132 137 145 155 161 168 173 183 220 237 227 207 204 208 210 214 219 222 222 219 217 220 222 223 223 221 219 219 219 221 230 244 249 247 243 240 239 238 236 237 240 242 242 241 242 248 253 250 241 232 228 228 228 232 244 261 279 289 291 291 292 293 296 298 298 300 296 272 215 163 77 355 344 344 340 337 337
104 114 129 129 126 128 126 122 127 136 145 158 168 172 170 185 226 238 220 201 206 209 208 212 214 215 216 213 212 214 215 217 218 215 214 213 213 220 230 235 234 231 230 231 234 236 234 233 236 242 246 248 253 257 253 243 233 228 227 226 227 234 248 269 283 286 286 288 291 294 297 297 294 290 269 200 166 117 33 359 346 345 340 338 340
121 128 135 134 132 132 129 122 123 133 145 156 167 170 162 168 225 223 178 164 183 200 197 195 194 201 208 206 204 202 201 205 209 209 213 218 222 229 233 229 224 223 226 232 235 237 237 237 238 243 249 255 260 258 247 235 225 222 225 225 228 236 254 273 280 283 285 287 288 290 290 286 275 249 179 158 139 73 26 3 355 347 338 338 344
135 140 141 138 134 133 130 123 120 131 144 151 156 158 151 146 174 195 148 140 169 196 188 175 174 182 187 188 190 190 188 191 196 201 209 218 224 228 229 226 224 225 228 233 237 236 235 236 241 248 255 261 260 247 235 225 219 220 223 223 229 243 261 271 275 279 284 287 288 288 280 236 155 131 128 126 105 62 26 10 12 355 336 337 345
132 144 145 140 135 134 132 126 124 134 143 147 150 151 142 137 154 196 179 171 189 197 185 174 176 175 172 176 185 188 186 186 189 195 204 210 214 218 221 226 230 231 232 236 238 237 237 241 250 260 265 266 258 241 228 222 220 224 226 227 237 258 271 273 275 282 289 291 285 216 141 131 125 122 122 116 94 54 15 4 11 359 343 340 347
132 139 141 138 135 135 132 129 131 137 141 145 149 148 136 133 157 190 193 185 190 193 186 182 179 175 176 181 186 189 188 185 183 188 196 201 206 214 222 229 235 236 239 243 245 247 252 258 262 264 263 258 250 241 232 226 224 228 232 237 251 269 277 274 276 287 296 289 164 142 134 125 117 115 111 88 52 19 7 10 14 7 359 358 3
138 134 134 136 137 137 134 134 138 144 146 147 149 147 142 143 159 175 172 178 186 186 185 187 185 184 188 190 190 191 191 188 188 191 195 196 203 215 225 233 238 240 243 248 252 258 265 264 259 259 258 252 247 243 237 228 225 231 239 247 263 275 270 259 272 301 314 124 132 125 116 108 99 88 67 46 38 26 17 20 19 13 9 8 9
150 144 137 138 142 143 142 143 146 148 149 146 141 138 136 140 141 57 33 82 190 181 177 181 184 184 186 189 193 194 192 195 200 202 202 202 203 210 222 231 236 240 244 251 261 272 274 259 253 256 255 250 246 244 239 232 230 236 242 250 265 261 231 230 291 345 102 137 133 115 101 93 83 72 58 48 46 38 27 23 19 14 12 11 9